Stündliche Wetter Otradnoe

Heute, 10 April, Samstag

Zeit Temperatur Niederschläge Wind Luftdruck Luftfeuchtigkeit
00:00 +2°C° 0 mm 1 m/S 755 mmHg 54%
01:00 +1°C° 0 mm 1 m/S 755 mmHg 55%
02:00 +1°C° 0 mm 1 m/S 755 mmHg 55%
03:00 +1°C° 0 mm 1 m/S 755 mmHg 56%
04:00 +1°C° 0 mm 1 m/S 755 mmHg 56%
05:00 +1°C° 0 mm 1 m/S 756 mmHg 56%
06:00 +1°C° 0 mm 1 m/S 756 mmHg 56%
07:00 +4°C° 0 mm 1 m/S 756 mmHg 48%
08:00 +5°C° 0 mm 2 m/S 755 mmHg 40%
09:00 +8°C° 0 mm 2 m/S 756 mmHg 33%
10:00 +9°C° 0 mm 2 m/S 755 mmHg 30%
11:00 +12°C° 0 mm 2 m/S 755 mmHg 27%
12:00 +12°C° 0 mm 3 m/S 755 mmHg 24%
13:00 +12°C° 0 mm 3 m/S 754 mmHg 24%
14:00 +12°C° 0 mm 3 m/S 754 mmHg 24%
15:00 +13°C° 0 mm 4 m/S 754 mmHg 23%
16:00 +12°C° 0 mm 4 m/S 754 mmHg 27%
17:00 +10°C° 0 mm 4 m/S 754 mmHg 30%
18:00 +8°C° 0 mm 4 m/S 754 mmHg 34%
19:00 +7°C° 0 mm 4 m/S 754 mmHg 45%
20:00 +5°C° 0 mm 4 m/S 755 mmHg 57%
21:00 +4°C° 0 mm 4 m/S 755 mmHg 68%
22:00 +3°C° 0 mm 4 m/S 755 mmHg 71%
23:00 +3°C° 0 mm 3 m/S 755 mmHg 73%

Morgen, 11 April, Sonntag

Zeit Temperatur Niederschläge Wind Luftdruck Luftfeuchtigkeit
00:00 +3°C° 0 mm 3 m/S 755 mmHg 76%
01:00 +3°C° 0 mm 3 m/S 755 mmHg 78%
02:00 +3°C° 0 mm 3 m/S 755 mmHg 80%
03:00 +2°C° 0 mm 3 m/S 755 mmHg 81%
04:00 +2°C° 0 mm 3 m/S 755 mmHg 83%
05:00 +2°C° 0 mm 3 m/S 755 mmHg 84%
06:00 +2°C° 0 mm 3 m/S 755 mmHg 85%
07:00 +5°C° 0 mm 4 m/S 755 mmHg 76%
08:00 +7°C° 0 mm 5 m/S 755 mmHg 66%
09:00 +10°C° 0 mm 5 m/S 755 mmHg 57%
10:00 +11°C° 0 mm 6 m/S 754 mmHg 53%
11:00 +12°C° 0 mm 7 m/S 754 mmHg 50%
12:00 +14°C° 0 mm 7 m/S 754 mmHg 46%
13:00 +14°C° 0 mm 7 m/S 753 mmHg 47%
14:00 +14°C° 0 mm 7 m/S 753 mmHg 49%
15:00 +13°C° 0 mm 8 m/S 753 mmHg 50%
16:00 +12°C° 0 mm 7 m/S 753 mmHg 56%
17:00 +11°C° 0 mm 7 m/S 753 mmHg 63%
18:00 +10°C° 0 mm 7 m/S 752 mmHg 69%
19:00 +9°C° 0 mm 6 m/S 753 mmHg 72%
20:00 +8°C° 0 mm 6 m/S 753 mmHg 74%
21:00 +7°C° 0 mm 5 m/S 754 mmHg 77%
22:00 +7°C° 0 mm 5 m/S 754 mmHg 79%
23:00 +7°C° 0 mm 5 m/S 753 mmHg 81%

übermorgen, 12 April, Montag

Zeit Temperatur Niederschläge Wind Luftdruck Luftfeuchtigkeit
00:00 +7°C° 0 mm 5 m/S 753 mmHg 84%
01:00 +7°C° 0 mm 5 m/S 753 mmHg 84%
02:00 +7°C° 0 mm 5 m/S 752 mmHg 85%
03:00 +7°C° 0 mm 5 m/S 752 mmHg 86%
04:00 +7°C° 0 mm 5 m/S 752 mmHg 87%
05:00 +7°C° 0 mm 5 m/S 752 mmHg 87%
06:00 +7°C° 0 mm 5 m/S 751 mmHg 88%
07:00 +8°C° 0 mm 6 m/S 751 mmHg 83%
08:00 +8°C° 0 mm 6 m/S 751 mmHg 78%
09:00 +9°C° 0 mm 7 m/S 751 mmHg 73%
10:00 +10°C° 0 mm 7 m/S 750 mmHg 67%
11:00 +11°C° 0 mm 8 m/S 750 mmHg 62%
12:00 +12°C° 0 mm 8 m/S 749 mmHg 56%
13:00 +12°C° 0 mm 8 m/S 748 mmHg 55%
14:00 +12°C° 0 mm 8 m/S 748 mmHg 53%
15:00 +12°C° 0 mm 8 m/S 747 mmHg 52%
16:00 +11°C° 0 mm 7 m/S 747 mmHg 59%
17:00 +10°C° 0 mm 6 m/S 746 mmHg 67%
18:00 +9°C° 0 mm 6 m/S 746 mmHg 74%
19:00 +9°C° 0.1 mm 6 m/S 746 mmHg 75%
20:00 +8°C° 0.1 mm 6 m/S 745 mmHg 75%
21:00 +8°C° 0.1 mm 6 m/S 745 mmHg 76%
22:00 +8°C° 0 mm 6 m/S 744 mmHg 79%
23:00 +8°C° 0 mm 6 m/S 744 mmHg 81%

13 April, Dienstag

Zeit Temperatur Niederschläge Wind Luftdruck Luftfeuchtigkeit
00:00 +7°C° 0 mm 5 m/S 743 mmHg 84%
01:00 +7°C° 0.2 mm 5 m/S 743 mmHg 86%
02:00 +7°C° 0.2 mm 5 m/S 742 mmHg 88%
03:00 +7°C° 0.2 mm 4 m/S 742 mmHg 90%
04:00 +6°C° 0.8 mm 4 m/S 742 mmHg 92%
05:00 +7°C° 0.8 mm 3 m/S 741 mmHg 94%
06:00 +5°C° 0.8 mm 3 m/S 741 mmHg 95%
07:00 +3°C° 1.2 mm 4 m/S 742 mmHg 93%
08:00 0°C° 1.2 mm 4 m/S 743 mmHg 91%
09:00 -2°C° 1.2 mm 5 m/S 744 mmHg 88%
10:00 -3°C° 0.2 mm 6 m/S 744 mmHg 75%
11:00 -2°C° 0.2 mm 7 m/S 743 mmHg 62%
12:00 -1°C° 0.2 mm 7 m/S 743 mmHg 49%
13:00 -1°C° 0 mm 7 m/S 743 mmHg 44%
14:00 0°C° 0 mm 7 m/S 743 mmHg 40%
15:00 0°C° 0 mm 7 m/S 743 mmHg 35%
16:00 +1°C° 0 mm 6 m/S 743 mmHg 36%
17:00 +1°C° 0 mm 5 m/S 742 mmHg 38%
18:00 0°C° 0 mm 4 m/S 742 mmHg 39%
19:00 0°C° 0 mm 3 m/S 743 mmHg 43%
20:00 -1°C° 0 mm 3 m/S 743 mmHg 48%
21:00 -2°C° 0 mm 2 m/S 743 mmHg 52%
22:00 -2°C° 0 mm 2 m/S 744 mmHg 55%
23:00 -3°C° 0 mm 2 m/S 744 mmHg 58%

14 April, Mittwoch

Zeit Temperatur Niederschläge Wind Luftdruck Luftfeuchtigkeit
00:00 -3°C° 0 mm 2 m/S 745 mmHg 61%
01:00 -3°C° 0 mm 2 m/S 745 mmHg 63%
02:00 -1°C° 0 mm 1 m/S 745 mmHg 65%
03:00 -2°C° 0 mm 1 m/S 745 mmHg 67%
04:00 -2°C° 0 mm 1 m/S 745 mmHg 66%
05:00 -2°C° 0 mm 1 m/S 745 mmHg 65%
06:00 -2°C° 0 mm 1 m/S 746 mmHg 65%
07:00 -2°C° 0 mm 2 m/S 746 mmHg 56%
08:00 -1°C° 0 mm 3 m/S 746 mmHg 48%
09:00 +1°C° 0 mm 3 m/S 746 mmHg 39%
10:00 +1°C° 0 mm 4 m/S 746 mmHg 36%
11:00 +3°C° 0 mm 4 m/S 746 mmHg 32%
12:00 +4°C° 0 mm 4 m/S 746 mmHg 28%
13:00 +4°C° 0 mm 4 m/S 745 mmHg 28%
14:00 +5°C° 0 mm 4 m/S 745 mmHg 28%
15:00 +5°C° 0 mm 4 m/S 745 mmHg 28%
16:00 +5°C° 0 mm 3 m/S 745 mmHg 30%
17:00 +6°C° 0 mm 2 m/S 745 mmHg 33%
18:00 +6°C° 0 mm 1 m/S 745 mmHg 36%
19:00 +4°C° 0 mm 2 m/S 745 mmHg 41%
20:00 +1°C° 0 mm 3 m/S 746 mmHg 46%
21:00 -1°C° 0 mm 4 m/S 747 mmHg 51%
22:00 0°C° 0 mm 3 m/S 747 mmHg 55%
23:00 -1°C° 0 mm 3 m/S 747 mmHg 60%

15 April, Donnerstag

Zeit Temperatur Niederschläge Wind Luftdruck Luftfeuchtigkeit
00:00 -1°C° 0 mm 3 m/S 747 mmHg 64%
01:00 -1°C° 0 mm 3 m/S 747 mmHg 68%
02:00 -1°C° 0 mm 3 m/S 747 mmHg 72%
03:00 -1°C° 0 mm 3 m/S 747 mmHg 76%
04:00 -1°C° 0 mm 3 m/S 746 mmHg 79%
05:00 -1°C° 0 mm 3 m/S 746 mmHg 82%
06:00 0°C° 0 mm 3 m/S 746 mmHg 86%
07:00 +1°C° 0 mm 4 m/S 746 mmHg 78%
08:00 +3°C° 0 mm 5 m/S 746 mmHg 71%
09:00 +5°C° 0 mm 6 m/S 746 mmHg 63%
10:00 +6°C° 0 mm 7 m/S 745 mmHg 63%
11:00 +6°C° 0 mm 7 m/S 745 mmHg 63%
12:00 +7°C° 0 mm 8 m/S 744 mmHg 62%
13:00 +7°C° 0 mm 9 m/S 743 mmHg 62%
14:00 +7°C° 0 mm 9 m/S 743 mmHg 63%
15:00 +8°C° 0 mm 10 m/S 742 mmHg 63%
16:00 +7°C° 0 mm 10 m/S 742 mmHg 65%
17:00 +6°C° 0 mm 10 m/S 742 mmHg 67%
18:00 +5°C° 0 mm 10 m/S 742 mmHg 70%
19:00 +5°C° 0 mm 10 m/S 741 mmHg 71%
20:00 +5°C° 0 mm 10 m/S 741 mmHg 72%
21:00 +3°C° 0 mm 10 m/S 741 mmHg 73%
22:00 +3°C° 0.2 mm 9 m/S 741 mmHg 77%
23:00 +4°C° 0.2 mm 7 m/S 742 mmHg 82%
Mehr zeigen

Wir brauchen deine Erlaubnis

Meteoprog und unser Service Anbieter werden persönliche Daten aufbewahren, so wie Cookies, Geräte Bezeichnung oder ähnliche Technologien von deinem Gerät und Prozess, so wie Persönliche Daten Inhalte und Werbungen, genauso wie social Media und den Verkehr zu analysieren.

  • Aufbewahrung und/oder Zugang zu deiner Geräte Informationen.

    Cookies, Geräte Bezeichnung oder andere Informationen, können aufbewahrt oder Zugang zu deinem Gerät erhalten, für den Grund, der oben angegeben wird.

  • Personalisierte Werbung und Inhalte, Messungen, Einblick in das Publikum und Produkt Entwicklung.

    Werbungen und Inhalte können personalisiert werden, basierend auf ein Profil. Mehr Daten können besser personalisierte Werbungen und Inhalte hinzufügen. Werbung und Inhalte können gezeigt und gemessen werden. Einblicke über das Publikum, welche die Werbung gesehen haben und den Inhalt, können abgeleitet werden. So wie Daten können genutzt werden, um es zu verbessern oder die Benutzer Erfahrung zu verbessern das System und die Software.

Wenn du “Ich stimme zu” klickst, erlaubst du uns, die Cookies zu benutzen die Geräte Bezeichnung, den Web oder ähnliche Technologien zu benutzen. Deine Settings, können in deinem Gerät bei deinem Browser geändert werden.

Für den bestimmten Zweck, berechtigten Interessen beruhen darauf, mehr als auf den Inhalt. Du kannst mehr darüber in unseren Privaten und Cookie Politik lesen.